Regional Weather Roundup
Issued by NWS

Home | Current Version | Previous Version | Graphics & Text | Print | Product List | Glossary On
Versions: 1 2 3 4 5 6 7 8 9 10 11 12 13 14 15 16 17 18 19 20 21 22 23 24 25 26 27 28 29 30 31 32 33 34 35 36 37 38 39 40 41 42 43 44 45 46 47 48 49 50
500
ASUS43 KMPX 142001
RWRMN
WEATHER ROUNDUP FOR MINNESOTA
NATIONAL WEATHER SERVICE TWIN CITIES/CHANHASSEN MN
200 PM CST SUN FEB 14 2016


NOTE: "FAIR" INDICATES FEW OR NO CLOUDS BELOW 12,000 FEET WITH NO
SIGNIFICANT WEATHER AND/OR OBSTRUCTIONS TO VISIBILITY. N/A MEANS
CURRENT SKY AND/OR WEATHER CONDITIONS ARE NOT AVAILABLE.

MNZ060>063-068>070-142100-
   Twin Cities Metro

CITY           SKY/WX    TMP DP  RH WIND       PRES   REMARKS
TWIN CITIES    FLURRIES  18  11  74 SE13      29.94F WCI   5
ST PAUL        LGT SNOW  18  10  71 SE18      29.96F WCI   2
CRYSTAL        LGT SNOW  19  11  70 SE15G22   29.92F WCI   5
BLAINE         LGT SNOW  19  12  73 SE12G17   29.93F WCI   7
LAKEVILLE      FLURRIES  16  12  86 SE12G20   29.93F WCI   3
EDEN PRAIRIE   LGT SNOW  19  11  70 SE14      29.92F WCI   6
SOUTH ST PAUL  FLURRIES  19  11  72 SE12G17   29.95F WCI   6
LAKE ELMO      FLURRIES  19  12  73 S13       29.95F WCI   7
$$
MNZ001>005-007-008-013>017-022>024-027-028-142100-
   Northwest Minnesota

CITY           SKY/WX    TMP DP  RH WIND       PRES   REMARKS
BEMIDJI        LGT SNOW  13   9  82 S12G21    29.78F WCI  -1
HALLOCK        LGT SNOW  18  16  93 S18       29.73F VSB 1   WCI   2
ROSEAU         LGT SNOW  16  10  79 S15       29.76F WCI   1
WARROAD        LGT SNOW  14  10  85 S12       29.77F WCI   0
THIEF RVR FALL CLOUDY    16  10  79 S17       29.77S WCI   0
CROOKSTON      LGT SNOW  16  14  93 S18G28    29.78S VSB 1   WCI  -1
FOSSTON        LGT SNOW  16   9  73 S18       29.76F WCI  -1
DETROIT LAKES  LGT SNOW  18  12  79 S15       29.78F WCI   3
MOORHEAD       CLOUDY    16  12  86 S17       29.79F FOG     WCI   0
PARK RAPIDS    SNOW      15   9  76 S14       29.79F VSB 1/2 WCI   0
MAHNOMEN       LGT SNOW  15  10  80 S15G22    29.77F WCI  -1
$$
MNZ006-009>011-018-025>026-142100-
   North Central Minnesota

CITY           SKY/WX    TMP DP  RH WIND       PRES   REMARKS
BAUDETTE       LGT SNOW  12   6  77 S15       29.78F VSB 3/4 WCI  -4
FLAG ISLAND    LGT SNOW  12   9  85 S17G25    29.77F VSB 3/4 WCI  -5
INTL FALLS     HVY SNOW  12   7  80 VRB5      29.83F VSB 1/4 WCI   4
WASKISH        LGT SNOW  14   9  79 SE8       29.80F WCI   3
LONGVILLE      LGT SNOW  14   9  79 SE12      29.83F WCI   0
GRAND RAPIDS   CLOUDY    12   7  79 S13       29.84F WCI  -3
CRANE LAKE     CLOUDY    16   7  67 SE5       29.89F WCI   9
ORR            LGT SNOW  12   7  79 SE8G16    29.81F WCI   1
COOK           LGT SNOW  12   9  85 SE13      29.85F WCI  -3
WALKER         LGT SNOW  12   7  79 S12       29.81F WCI  -2
$$
MNZ012-019>021-037-142100-
   Northeast Minnesota

CITY           SKY/WX    TMP DP  RH WIND       PRES   REMARKS
DULUTH         CLOUDY    12   6  77 S9        29.90F HAZE    WCI   0
ELY            FLURRIES  16   7  67 S12       29.88F WCI   3
HIBBING        LGT SNOW  11   5  77 SE12G21   29.86F WCI  -3
EVELETH        LGT SNOW  14   9  79 SE10      29.88F WCI   1
DULUTH HARBOR  CLOUDY    18   9  68 S12       29.99F WCI   5
TWO HARBORS    LGT SNOW  16   9  73 S6        29.94F WCI   7
SILVER BAY     FLURRIES  16   3  57 CALM      29.95F
GRAND MARAIS     N/A     20   8  60 S12       30.03F WCI   8
G MARAIS ARPRT FLURRIES  12   0  57 S9G18     29.93F WCI   0
$$
MNZ029>031-032-039>041-046>048-054>057-064-142100-
   West Central Minnesota

CITY           SKY/WX    TMP DP  RH WIND       PRES   REMARKS
FERGUS FALLS   LGT SNOW  16  12  86 S16       29.84S WCI   0
WHEATON        MOSUNNY   19  16  86 S12G17    29.83F WCI   7
MORRIS         CLOUDY    19  14  79 S21       29.81S HAZE    WCI   3
ALEXANDRIA     CLOUDY    17  11  77 S16       29.81F HAZE    WCI   2
ELBOW LAKE     CLOUDY    17  13  86 S18       29.82S FOG     WCI   0
WADENA         LGT SNOW  16  10  79 S13       29.80F WCI   2
GLENWOOD       LGT SNOW  18  12  79 S18       29.82F WCI   2
APPLETON       CLOUDY    19  12  73 S13       29.83F WCI   7
BENSON         FLURRIES  19  12  73 S14       29.84R WCI   6
ORTONVILLE     CLOUDY    19  12  73 S13       29.82S WCI   7
MADISON        CLOUDY    21  16  79 S14       29.83F WCI   8
WILLMAR        LGT SNOW  21  18  86 SE16      29.86S WCI   7
$$
MNZ033>034-036-042>043-049>051-058-059-142100-
   Central Minnesota

CITY           SKY/WX    TMP DP  RH WIND       PRES   REMARKS
ST CLOUD       LGT SNOW  18  11  74 SE16      29.88F WCI   3
SAUK CENTRE    LGT SNOW  17  12  82 SE17      29.84F WCI   1
PAYNESVILLE    LGT SNOW  18  13  82 SE15      29.86F WCI   4
AITKIN         LGT SNOW  18   7  62 S10       29.86F WCI   6
PINE RIVER     LGT SNOW  14   9  79 S14G21    29.86F WCI  -1
BRAINERD       LGT SNOW  15   9  76 SE12      29.85F WCI   2
STAPLES        LGT SNOW  16   9  73 S14       29.82F WCI   1
LONG PRAIRIE   LGT SNOW  18  12  79 SE15      29.83F WCI   3
LITTLE FALLS   LGT SNOW  18  10  73 S13       29.86F WCI   4
LITCHFIELD     LGT SNOW  19  16  86 SE12      29.87F WCI   7
BUFFALO        FLURRIES  19  11  72 SE9       29.91F WCI   8
MAPLE LAKE     LGT SNOW  20  14  76 SE12G18   29.90F WCI   8
$$
MNZ037-044-045-052-053-142100-
   East Central Minnesota

CITY           SKY/WX    TMP DP  RH WIND       PRES   REMARKS
PRINCETON      CLOUDY    19  12  73 SE12G17   29.90F WCI   7
MORA           FLURRIES  18  10  73 S9G16     29.92F WCI   6
CAMBRIDGE      FLURRIES  19  10  68 SE10      29.90F WCI   8
RUSH CITY      CLOUDY    18  11  74 S9        29.94F WCI   7
MOOSE LAKE     CLOUDY    18   5  57 SE6       29.90F WCI   9
HINCKLEY       CLOUDY    19   9  63 SE10G17   29.92F WCI   8
CLOQUET        LGT SNOW  12   7  79 SE6       29.90F WCI   3
MCGREGOR       CLOUDY    18   9  68 SE10      29.88F WCI   6
$$
MNZ071>073-080-081-089-090-097-098-142100-
   Southwest Minnesota

CITY           SKY/WX    TMP DP  RH WIND       PRES   REMARKS
MONTEVIDEO     LGT SNOW  21  16  79 SW12      29.86R WCI   9
GRANITE FALLS  CLOUDY    22  17  80 SE14      29.86S WCI   9
CANBY          CLOUDY    24  17  75 S8        29.83S WCI  15
MARSHALL       CLOUDY    21  14  74 S16       29.83S WCI   7
REDWOOD FALLS  LGT SNOW  19  14  81 S17       29.86F WCI   4
OLIVIA         LGT SNOW  21  16  79 S16       29.85F WCI   7
PIPESTONE      CLOUDY    19  10  68 S9        29.78F WCI   9
WINDOM         FLURRIES  19  14  79 SE13      29.83S WCI   7
WORTHINGTON    CLOUDY    18  12  79 S10       29.82F WCI   6
JACKSON        FLURRIES  21  12  68 S10       29.84S WCI  10
TRACY          PTSUNNY   21  15  78 S14       29.82S WCI   8
SLAYTON        CLOUDY    19  16  89 S12       29.81F WCI   6
$$
MNZ065>067-074>077-082>085-091>093-142100-
   South Central Minnesota

CITY           SKY/WX    TMP DP  RH WIND       PRES   REMARKS
MANKATO        CLOUDY    18  12  79 S16       29.88F WCI   3
NEW ULM        LGT SNOW  18  12  79 S13       29.88F WCI   4
ST JAMES       LGT SNOW  19  16  86 SE16      29.87F WCI   5
FAIRMONT       CLOUDY    19  12  73 SE16      29.84F WCI   5
GLENCOE        CLOUDY    20  15  81 SE14      29.89F WCI   7
FARIBAULT      CLOUDY    19  12  73 SE14G20   29.93F WCI   6
OWATONNA       CLOUDY    18  10  73 SE21      29.90F HAZE    WCI   1
WASECA         CLOUDY    19  14  79 SE16      29.91F WCI   5
ALBERT LEA     LGT SNOW  18  12  79 SE17G26   29.89F WCI   2
$$
MNZ078>079-086>088-094>096-142100-
   Southeast Minnesota

CITY           SKY/WX    TMP DP  RH WIND       PRES   REMARKS
ROCHESTER      CLOUDY    16  10  77 SE20      29.91F WCI  -1
STANTON        FLURRIES  20  11  67 SE15      29.92F WCI   7
DODGE CENTER   LGT SNOW  16  12  86 SE22      29.90F WCI  -2
WINONA         FLURRIES  21  14  73 SE10      30.01F WCI  10
AUSTIN         LGT SNOW  18  12  79 SE14G21   29.90F WCI   4
PRESTON        CLOUDY    17  10  75 SE18      29.94F WCI   0
$$
ABBREVIATIONS USED IN REMARKS
   TC - TEMPERATURES IN CELSIUS
  WCI - WIND CHILL INDEX
   HX - HEAT INDEX
  VSB - VISIBILITY
$$




USA.gov is the U.S. government's official web portal to all federal, state and local government web resources and services.